sat.trackr.live / text

‹ back to catalog

STARLINK-34015

NORAD 63854 · 2025-093U

PAYLOAD ACTIVE UNKNOWN

§ Identity

Operator
Country
US
Launch date
2025-05-07
Launch site
AFETR
Launch vehicle
Mass (kg)
RCS (m²)

Purposes: comms

External: N2YO · Heavens-Above · Gunter

§ Orbital elements

Epoch: 2026-09-20T21:41:52.885248Z

Period
94.27 min
Inclination
43.0001°
Eccentricity
0.0001374
Mean motion
15.27587194 rev/d
Perigee alt
482.1 km
Apogee alt
484.0 km
Semi-major
6,861.2 km
B*
3.5457e-4
RAAN
55.7595°
Arg perigee
267.9114°
Mean anomaly
92.1580°
Rev number
7,766

§ Raw data

STARLINK-340151 63854U 25093U   26263.90408432  .00009510  00000+0  35457-3 0  99952 63854  43.0001  55.7595 0001374 267.9114  92.1580 15.27587194 77667

JSON: /api/v1/satellites/63854 · /tle

For live sub-satellite position, see the globe view (requires WebGL).

§ Visibility from observer

Set your observer location to see the next 7 days of passes ≥ 10°. The values pass through the URL so the page stays shareable.

No JS? Fill the form by hand. The geolocation button needs JavaScript.